Flag for U.S.A. Weather past 2 weeks in Paradise, Nevada, U.S.A.

Now
99 °F

Broken clouds.


Feels Like: 96 °F
Forecast: 83 / 103 °F
Wind: 17 mph from South

Location: McCarran International Airport

Current Time: Jul 25, 2014 at 8:30:36 PM

Latest Report: Jul 25, 2014 at 7:56 PM


Visibility: 10 mi

Pressure: 29.71 "Hg

Humidity: 21%

Dew point: 52 °F

Location of ParadiseLocation

Historic Weather in Paradise — Graph

°F

Paradise temperature yesterday

Maximum temperature yesterday: 111 °F (at 3:56 PM)
Minimum temperature yesterday: 88 °F (at 5:56 AM)
Average temperature yesterday: 100 °F

Past Weeks' High & Low Weather Summary

 TemperatureHumidityPressure
High111 °F (Jul 13, 4:56 PM)61% (Jul 15, 5:56 AM)29.95 "Hg (Jul 15, 5:56 AM)
Low77 °F (Jul 12, 5:56 AM)3% (Jul 22, 5:56 PM)29.60 "Hg (Jul 17, 5:56 PM)
Average95 °F17%29.77 "Hg
* Reported Jul 10 6:56 PM — Jul 25 6:56 PM, Paradise, Weather by CustomWeather, © 2014

Note: Actual official high and low records may vary slightly from our data, if they occured in-between our weather recording intervals... More about our weather records

Advertising

Paradise weather history for previous 24 hours

 ConditionsComfort  
Time TempWeatherWind HumidityBarometerVisibility
6:56 PM
Jul 25
102 °FBroken clouds.14 mph15%29.69 "Hg10 mi
5:56 PM103 °FBroken clouds.12 mph15%29.68 "Hg10 mi
4:56 PM104 °FBroken clouds.15 mph14%29.70 "Hg10 mi
3:56 PM104 °FBroken clouds.13 mph14%29.71 "Hg10 mi
2:56 PM99 °FBroken clouds.16 mph18%29.73 "Hg10 mi
1:56 PM100 °FBroken clouds.22 mph17%29.75 "Hg10 mi
12:56 PM99 °FBroken clouds.14 mph21%29.76 "Hg10 mi
11:56 AM98 °FBroken clouds.13 mph21%29.77 "Hg10 mi
10:56 AM97 °FPartly sunny.16 mph21%29.77 "Hg10 mi
9:56 AM97 °FPartly sunny.9 mph19%29.77 "Hg10 mi
8:56 AM94 °FPartly sunny.8 mph21%29.76 "Hg10 mi
7:56 AM94 °FPartly sunny.10 mph20%29.75 "Hg10 mi
6:56 AM91 °FScattered clouds.10 mph21%29.73 "Hg10 mi
5:56 AM90 °FPassing clouds.12 mph22%29.72 "Hg10 mi
4:56 AM90 °FPassing clouds.12 mph24%29.70 "Hg10 mi
3:56 AM92 °FPassing clouds.12 mph23%29.68 "Hg10 mi
2:56 AM93 °FPassing clouds.15 mph24%29.68 "Hg10 mi
1:56 AM96 °FPassing clouds.16 mph22%29.68 "Hg10 mi
12:56 AM96 °FPassing clouds.15 mph23%29.69 "Hg10 mi
11:56 PM
Jul 24
96 °FPassing clouds.14 mph22%29.69 "Hg10 mi
10:56 PM98 °FPassing clouds.21 mph17%29.67 "Hg10 mi
9:56 PM101 °FPassing clouds.9 mph8%29.66 "Hg10 mi
8:56 PM103 °FPassing clouds.10 mph8%29.65 "Hg10 mi
Weather by CustomWeather, © 2014

See weather overviewHow to use our weather pages